Time,TemperatureF,DewpointF,PressureIn,WindDirection,WindDirectionDegrees,WindSpeedMPH,WindSpeedGustMPH,Humidity,HourlyPrecipIn,Conditions,Clouds,dailyrainin,SoftwareType,DateUTC
2013-01-05 00:00:00,31.3,24.3,30.09,WNW,292,2.0,8.0,75,0.00,,---,0.00,VWS V14.01,2013-01-05 05:00:00,
2013-01-05 01:00:00,31.6,25.5,30.11,NNW,338,3.0,13.0,78,0.00,,---,0.00,VWS V14.01,2013-01-05 06:00:00,
2013-01-05 02:00:00,31.0,23.7,30.15,NNW,338,5.0,18.0,74,0.00,,---,0.00,VWS V14.01,2013-01-05 07:00:00,
2013-01-05 03:00:00,30.7,24.0,30.17,West,270,4.0,17.0,76,0.00,,---,0.00,VWS V14.01,2013-01-05 08:00:00,
2013-01-05 04:00:00,30.6,23.6,30.19,WNW,292,5.0,21.0,75,0.00,,---,0.00,VWS V14.01,2013-01-05 09:00:00,
2013-01-05 05:00:00,31.0,23.7,30.20,West,270,4.0,11.0,74,0.00,,---,0.00,VWS V14.01,2013-01-05 10:00:00,
2013-01-05 06:35:00,31.8,23.8,30.26,West,269,3.0,5.0,72,0.00,,,0.00,Wunderground v.1.15,2013-01-05 11:35:00,
2013-01-05 06:40:00,31.8,23.8,30.26,NW,326,4.0,4.0,72,0.00,,,0.00,Wunderground v.1.15,2013-01-05 11:40:00,
2013-01-05 06:45:00,31.8,23.8,30.26,NW,316,3.0,4.0,72,0.00,,,0.00,Wunderground v.1.15,2013-01-05 11:45:00,
2013-01-05 08:00:00,32.2,24.2,30.28,West,274,3.0,15.0,72,0.00,,---,0.00,VWS V14.01,2013-01-05 13:00:00,
2013-01-05 09:00:00,32.3,25.0,30.32,NNW,346,4.0,17.0,74,0.00,,---,0.00,VWS V14.01,2013-01-05 14:00:00,
2013-01-05 10:00:00,32.3,25.3,30.35,West,267,1.0,8.0,75,0.00,,---,0.00,VWS V14.01,2013-01-05 15:00:00,
2013-01-05 11:00:00,32.5,25.8,30.37,NW,326,2.0,10.0,76,0.00,,---,0.00,VWS V14.01,2013-01-05 16:00:00,
2013-01-05 12:01:00,33.2,25.8,30.35,NNE,15,5.0,9.0,74,0.00,,---,0.00,VWS V14.01,2013-01-05 17:01:00,
2013-01-05 13:01:00,33.7,25.3,30.32,WNW,290,1.0,10.0,71,0.00,,---,0.00,VWS V14.01,2013-01-05 18:01:00,
2013-01-05 14:01:00,33.7,24.3,30.31,NW,306,4.0,8.0,68,0.00,,---,0.00,VWS V14.01,2013-01-05 19:01:00,
2013-01-05 15:01:00,34.1,24.0,30.31,ESE,110,0.0,5.0,66,0.00,,---,0.00,VWS V14.01,2013-01-05 20:01:00,
2013-01-05 16:01:00,33.6,22.0,30.31,NNE,18,1.0,5.0,62,0.00,,---,0.00,VWS V14.01,2013-01-05 21:01:00,
2013-01-05 17:01:00,31.4,22.8,30.30,WSW,243,0.0,2.0,70,0.00,,---,0.00,VWS V14.01,2013-01-05 22:01:00,
2013-01-05 18:01:00,27.9,22.2,30.28,SSW,203,0.0,3.0,79,0.00,,---,0.00,VWS V14.01,2013-01-05 23:01:00,
2013-01-05 19:01:00,25.2,20.5,30.28,SSE,167,0.0,1.0,82,0.00,,---,0.00,VWS V14.01,2013-01-06 00:01:00,
2013-01-05 20:01:00,25.1,21.2,30.27,ESE,121,1.0,1.0,85,0.00,,---,0.00,VWS V14.01,2013-01-06 01:01:00,
2013-01-05 21:01:00,25.5,20.5,30.25,SW,222,1.0,2.0,81,0.00,,---,0.00,VWS V14.01,2013-01-06 02:01:00,
2013-01-05 22:01:00,27.3,21.4,30.23,SW,218,2.0,5.0,78,0.00,,---,0.00,VWS V14.01,2013-01-06 03:01:00,
2013-01-05 23:01:00,27.4,21.1,30.21,SW,235,1.0,5.0,77,0.00,,---,0.00,VWS V14.01,2013-01-06 04:01:00,